Location: Poughquag
(41.6090°N, 73.6820°W)
Time: 12:53:06
(UTC-04:00)

A-11 Canister half - Pass Details

Date: 02 June 2020
Orbit: 1527 x 1682 km, 47.3° (Epoch: 06 July)

Event Time Altitude Azimuth Distance (km) Brightness Sun altitude
Rises 05:40:11 0° 199° (SSW) 4,677 11.1 2.1°
Reaches altitude 10° 05:43:39 10° 189° (S) 3,689 10.7 2.6°
Maximum altitude 05:51:27 31° 132° (SE) 2,410 10.4 3.9°
Drops below altitude 10° 05:59:16 10° 74° (ENE) 3,713 13.4 5.2°
Sets 06:02:45 0° 65° (ENE) 4,712 14.5 5.8°
